VTD146 UAIT-UAII

Flight info

Callsign VTD146
Flight time 0h 44m
Altitude 13000
Route MAGOL L139 RUSEK
Aircraft DA42/L-SDEFGRY/C

Departure

Time 2026-04-12 07:57
Airport Hazrat Sultan International Airport (UAIT)

Arrival

Time 2026-04-12 08:41
Airport Shymkent International Airport (UAII)
Time Latitude Longitude Altitude Speed Heading
2026-04-12 07:39 43.31413 68.54662 914 ft 0 kts 55°
2026-04-12 07:51 43.31419 68.54673 914 ft 6 kts 51°
2026-04-12 07:51 43.31405 68.54732 914 ft 9 kts 133°
2026-04-12 07:52 43.31373 68.54802 914 ft 8 kts 139°
2026-04-12 07:52 43.31323 68.54849 914 ft 10 kts 144°
2026-04-12 07:52 43.31259 68.54909 914 ft 12 kts 145°
2026-04-12 07:52 43.31209 68.54956 914 ft 0 kts 146°
2026-04-12 07:55 43.31207 68.54958 914 ft 4 kts 142°
2026-04-12 07:55 43.31137 68.55021 913 ft 13 kts 148°
2026-04-12 07:56 43.31128 68.55074 913 ft 0 kts 58°
2026-04-12 07:56 43.31177 68.55174 912 ft 41 kts 54°
2026-04-12 07:56 43.31440 68.55699 918 ft 87 kts 57°
2026-04-12 07:57 43.31799 68.56397 1185 ft 92 kts 59°
2026-04-12 07:57 43.32151 68.57155 1477 ft 93 kts 60°
2026-04-12 07:57 43.32491 68.57897 1836 ft 92 kts 61°
2026-04-12 07:57 43.32833 68.58608 2215 ft 86 kts 57°
2026-04-12 07:58 43.33181 68.59310 2461 ft 91 kts 59°
2026-04-12 07:58 43.33499 68.60064 2739 ft 87 kts 70°
2026-04-12 07:58 43.33775 68.60789 3017 ft 86 kts 59°
2026-04-12 07:58 43.34104 68.61478 3320 ft 88 kts 57°
2026-04-12 07:59 43.34465 68.62191 3589 ft 92 kts 58°
2026-04-12 07:59 43.34832 68.62911 3931 ft 92 kts 58°
2026-04-12 07:59 43.35204 68.63615 4291 ft 89 kts 58°
2026-04-12 07:59 43.35581 68.64295 4520 ft 91 kts 57°
2026-04-12 08:00 43.35959 68.64982 4854 ft 90 kts 57°
2026-04-12 08:00 43.36350 68.65679 5195 ft 94 kts 58°
2026-04-12 08:00 43.36758 68.66390 5554 ft 95 kts 58°
2026-04-12 08:00 43.37179 68.67111 5895 ft 97 kts 57°
2026-04-12 08:01 43.37606 68.67845 6151 ft 100 kts 57°
2026-04-12 08:01 43.38040 68.68590 6407 ft 100 kts 58°
2026-04-12 08:01 43.38475 68.69342 6674 ft 101 kts 58°
2026-04-12 08:01 43.38893 68.70117 6942 ft 101 kts 62°
2026-04-12 08:02 43.39281 68.70910 7217 ft 99 kts 62°
2026-04-12 08:02 43.39420 68.71788 7499 ft 94 kts 107°
2026-04-12 08:02 43.39003 68.72438 7801 ft 98 kts 153°
2026-04-12 08:02 43.38296 68.72434 8084 ft 108 kts 186°
2026-04-12 08:03 43.37560 68.72163 8335 ft 110 kts 188°
2026-04-12 08:03 43.36828 68.71884 8657 ft 110 kts 189°
2026-04-12 08:03 43.36100 68.71608 8939 ft 110 kts 188°
2026-04-12 08:03 43.35346 68.71325 9215 ft 111 kts 187°
2026-04-12 08:04 43.34607 68.71053 9488 ft 112 kts 186°
2026-04-12 08:04 43.33853 68.70788 9762 ft 112 kts 185°
2026-04-12 08:04 43.33094 68.70537 10049 ft 112 kts 186°
2026-04-12 08:04 43.32332 68.70289 10311 ft 112 kts 186°
2026-04-12 08:05 43.31569 68.70044 10577 ft 112 kts 186°
2026-04-12 08:05 43.30803 68.69807 10832 ft 113 kts 185°
2026-04-12 08:05 43.30038 68.69577 11109 ft 113 kts 186°
2026-04-12 08:05 43.29267 68.69346 11381 ft 113 kts 185°
2026-04-12 08:06 43.28493 68.69120 11655 ft 114 kts 186°
2026-04-12 08:06 43.27718 68.68894 11943 ft 114 kts 185°
2026-04-12 08:06 43.26942 68.68667 12209 ft 114 kts 185°
2026-04-12 08:06 43.26427 68.68519 12395 ft 114 kts 186°
2026-04-12 08:07 43.25648 68.68295 12663 ft 114 kts 185°
2026-04-12 08:07 43.24866 68.68075 12921 ft 115 kts 185°
2026-04-12 08:07 43.24076 68.67857 13186 ft 118 kts 185°
2026-04-12 08:07 43.23196 68.67632 13200 ft 138 kts 186°
2026-04-12 08:08 43.22200 68.67311 13193 ft 155 kts 194°
2026-04-12 08:08 43.21134 68.66901 13189 ft 163 kts 185°
2026-04-12 08:08 43.19989 68.66840 13180 ft 166 kts 173°
2026-04-12 08:08 43.18892 68.67228 13172 ft 166 kts 150°
2026-04-12 08:09 43.17819 68.67845 13183 ft 169 kts 158°
2026-04-12 08:09 43.16704 68.68369 13187 ft 170 kts 159°
2026-04-12 08:09 43.15571 68.68891 13184 ft 172 kts 158°
2026-04-12 08:09 43.14444 68.69452 13181 ft 172 kts 154°
2026-04-12 08:10 43.13366 68.70158 13164 ft 172 kts 151°
2026-04-12 08:10 43.12293 68.70898 13168 ft 173 kts 151°
2026-04-12 08:10 43.11217 68.71628 13163 ft 170 kts 151°
2026-04-12 08:10 43.10163 68.72336 13166 ft 167 kts 152°
2026-04-12 08:11 43.09130 68.73029 13160 ft 164 kts 152°
2026-04-12 08:11 43.08107 68.73715 13158 ft 163 kts 152°
2026-04-12 08:11 43.07095 68.74394 13165 ft 162 kts 152°
2026-04-12 08:11 43.06080 68.75075 13163 ft 162 kts 152°
2026-04-12 08:12 43.05079 68.75746 13160 ft 162 kts 151°
2026-04-12 08:12 43.04051 68.76434 13161 ft 162 kts 152°
2026-04-12 08:12 43.03052 68.77103 13162 ft 162 kts 151°
2026-04-12 08:12 43.02039 68.77777 13165 ft 162 kts 152°
2026-04-12 08:13 43.01029 68.78455 13160 ft 162 kts 152°
2026-04-12 08:13 43.00019 68.79131 13162 ft 162 kts 152°
2026-04-12 08:13 42.99009 68.79806 13159 ft 162 kts 152°
2026-04-12 08:13 42.97997 68.80481 13160 ft 161 kts 152°
2026-04-12 08:14 42.96985 68.81158 13155 ft 162 kts 152°
2026-04-12 08:14 42.95975 68.81832 13155 ft 161 kts 152°
2026-04-12 08:14 42.94967 68.82504 13156 ft 161 kts 152°
2026-04-12 08:14 42.93972 68.83166 13155 ft 161 kts 152°
2026-04-12 08:15 42.92963 68.83840 13157 ft 162 kts 152°
2026-04-12 08:15 42.91949 68.84516 13158 ft 162 kts 152°
2026-04-12 08:15 42.90938 68.85190 13155 ft 162 kts 153°
2026-04-12 08:15 42.89926 68.85863 13154 ft 162 kts 153°
2026-04-12 08:16 42.88994 68.86703 13151 ft 161 kts 138°
2026-04-12 08:16 42.88156 68.87721 13151 ft 161 kts 137°
2026-04-12 08:16 42.87323 68.88743 13155 ft 162 kts 137°
2026-04-12 08:16 42.86485 68.89769 13154 ft 162 kts 137°
2026-04-12 08:17 42.85643 68.90800 13150 ft 163 kts 137°
2026-04-12 08:17 42.84800 68.91827 13153 ft 163 kts 137°
2026-04-12 08:17 42.83953 68.92859 13154 ft 163 kts 137°
2026-04-12 08:17 42.83106 68.93894 13154 ft 164 kts 137°
2026-04-12 08:18 42.82258 68.94928 13148 ft 163 kts 137°
2026-04-12 08:18 42.81410 68.95961 13157 ft 164 kts 137°
2026-04-12 08:18 42.80569 68.96985 13154 ft 164 kts 138°
2026-04-12 08:18 42.79716 68.98025 13157 ft 165 kts 137°
2026-04-12 08:19 42.78859 68.99069 13153 ft 165 kts 137°
2026-04-12 08:19 42.78001 69.00114 13146 ft 165 kts 138°
2026-04-12 08:19 42.77146 69.01155 13145 ft 165 kts 138°
2026-04-12 08:19 42.76283 69.02189 13148 ft 165 kts 142°
2026-04-12 08:20 42.75377 69.03155 13152 ft 166 kts 141°
2026-04-12 08:20 42.74479 69.04142 13146 ft 166 kts 141°
2026-04-12 08:20 42.73581 69.05122 13147 ft 165 kts 141°
2026-04-12 08:20 42.72683 69.06095 13148 ft 165 kts 141°
2026-04-12 08:21 42.71786 69.07065 13151 ft 165 kts 141°
2026-04-12 08:21 42.70889 69.08035 13150 ft 165 kts 141°
2026-04-12 08:21 42.69990 69.09007 13150 ft 166 kts 141°
2026-04-12 08:21 42.69088 69.09982 13150 ft 166 kts 141°
2026-04-12 08:22 42.68188 69.10955 13147 ft 165 kts 141°
2026-04-12 08:22 42.67301 69.11914 13145 ft 165 kts 141°
2026-04-12 08:22 42.66402 69.12884 13149 ft 165 kts 141°
2026-04-12 08:22 42.65505 69.13853 13148 ft 165 kts 141°
2026-04-12 08:23 42.64601 69.14828 13146 ft 165 kts 141°
2026-04-12 08:23 42.63701 69.15798 13147 ft 165 kts 141°
2026-04-12 08:23 42.62803 69.16767 13146 ft 165 kts 141°
2026-04-12 08:23 42.61904 69.17736 13143 ft 165 kts 141°
2026-04-12 08:24 42.61003 69.18706 13149 ft 165 kts 141°
2026-04-12 08:24 42.60105 69.19673 13148 ft 165 kts 141°
2026-04-12 08:24 42.59203 69.20645 13141 ft 166 kts 141°
2026-04-12 08:24 42.58305 69.21610 13051 ft 168 kts 141°
2026-04-12 08:25 42.57393 69.22586 12852 ft 168 kts 141°
2026-04-12 08:25 42.56473 69.23575 12593 ft 169 kts 141°
2026-04-12 08:25 42.55551 69.24567 12337 ft 169 kts 141°
2026-04-12 08:25 42.54628 69.25561 12083 ft 169 kts 141°
2026-04-12 08:26 42.53706 69.26552 11834 ft 169 kts 142°
2026-04-12 08:26 42.52786 69.27541 11583 ft 169 kts 142°
2026-04-12 08:26 42.51865 69.28530 11337 ft 169 kts 142°
2026-04-12 08:26 42.50946 69.29516 11097 ft 168 kts 142°
2026-04-12 08:27 42.50031 69.30497 10848 ft 167 kts 142°
2026-04-12 08:27 42.49118 69.31474 10586 ft 167 kts 142°
2026-04-12 08:27 42.48203 69.32453 10319 ft 168 kts 142°
2026-04-12 08:27 42.47291 69.33432 10055 ft 167 kts 142°
2026-04-12 08:28 42.46383 69.34405 9773 ft 166 kts 142°
2026-04-12 08:28 42.45476 69.35375 9483 ft 166 kts 142°
2026-04-12 08:28 42.44577 69.36337 9203 ft 164 kts 143°
2026-04-12 08:28 42.43683 69.37293 8918 ft 163 kts 143°
2026-04-12 08:29 42.42795 69.38240 8637 ft 162 kts 143°
2026-04-12 08:29 42.41926 69.39162 8364 ft 160 kts 143°
2026-04-12 08:29 42.41052 69.40091 8087 ft 159 kts 143°
2026-04-12 08:29 42.40189 69.41010 7814 ft 157 kts 143°
2026-04-12 08:30 42.39336 69.41918 7543 ft 156 kts 143°
2026-04-12 08:30 42.38491 69.42826 7274 ft 155 kts 143°
2026-04-12 08:30 42.37652 69.43728 7015 ft 153 kts 143°
2026-04-12 08:30 42.36904 69.44630 6981 ft 139 kts 126°
2026-04-12 08:31 42.36623 69.45886 7003 ft 143 kts 101°
2026-04-12 08:31 42.36473 69.47232 7002 ft 147 kts 100°
2026-04-12 08:31 42.36333 69.48608 6967 ft 149 kts 100°
2026-04-12 08:31 42.36188 69.50018 6897 ft 153 kts 99°
2026-04-12 08:32 42.36032 69.51453 6825 ft 155 kts 101°
2026-04-12 08:32 42.35860 69.52906 6758 ft 158 kts 101°
2026-04-12 08:32 42.35684 69.54376 6668 ft 159 kts 101°
2026-04-12 08:32 42.35505 69.55861 6497 ft 158 kts 101°
2026-04-12 08:33 42.35333 69.57303 6315 ft 153 kts 101°
2026-04-12 08:33 42.35166 69.58706 6142 ft 150 kts 101°
2026-04-12 08:33 42.34997 69.60111 5922 ft 152 kts 101°
2026-04-12 08:33 42.34822 69.61529 5682 ft 153 kts 101°
2026-04-12 08:34 42.34646 69.62935 5481 ft 155 kts 101°
2026-04-12 08:34 42.34463 69.64373 5252 ft 155 kts 100°
2026-04-12 08:34 42.34283 69.65814 5027 ft 155 kts 100°
2026-04-12 08:34 42.34106 69.67249 4809 ft 155 kts 100°
2026-04-12 08:35 42.33923 69.68687 4584 ft 156 kts 100°
2026-04-12 08:35 42.33741 69.70126 4346 ft 154 kts 99°
2026-04-12 08:35 42.33421 69.71492 4116 ft 154 kts 127°
2026-04-12 08:35 42.32566 69.72217 3996 ft 141 kts 174°
2026-04-12 08:36 42.31684 69.71923 3991 ft 128 kts 219°
2026-04-12 08:36 42.31271 69.70942 3995 ft 120 kts 265°
2026-04-12 08:36 42.31454 69.69888 3957 ft 116 kts 293°
2026-04-12 08:36 42.31792 69.68879 3901 ft 122 kts 294°
2026-04-12 08:37 42.32106 69.67761 3830 ft 131 kts 287°
2026-04-12 08:37 42.32390 69.66547 3757 ft 141 kts 287°
2026-04-12 08:37 42.32670 69.65263 3686 ft 144 kts 285°
2026-04-12 08:37 42.32949 69.63955 3617 ft 146 kts 285°
2026-04-12 08:38 42.33235 69.62616 3517 ft 151 kts 286°
2026-04-12 08:38 42.33532 69.61247 3376 ft 152 kts 285°
2026-04-12 08:38 42.33833 69.59902 3222 ft 142 kts 285°
2026-04-12 08:38 42.34088 69.58659 3004 ft 133 kts 284°
2026-04-12 08:39 42.34330 69.57565 2860 ft 117 kts 285°
2026-04-12 08:39 42.34558 69.56536 2698 ft 113 kts 284°
2026-04-12 08:39 42.34767 69.55614 2564 ft 99 kts 285°
2026-04-12 08:39 42.34963 69.54724 2411 ft 98 kts 284°
2026-04-12 08:40 42.35144 69.53827 2226 ft 98 kts 284°
2026-04-12 08:40 42.35337 69.52961 2061 ft 95 kts 285°
2026-04-12 08:40 42.35515 69.52091 1898 ft 96 kts 284°
2026-04-12 08:40 42.35711 69.51235 1744 ft 96 kts 287°
2026-04-12 08:41 42.35897 69.50368 1572 ft 95 kts 287°
2026-04-12 08:41 42.36081 69.49519 1402 ft 93 kts 285°
2026-04-12 08:41 42.36253 69.48720 1351 ft 79 kts 285°
2026-04-12 08:41 42.36366 69.48198 1351 ft 30 kts 287°
2026-04-12 08:42 42.36409 69.48101 1351 ft 9 kts
2026-04-12 08:42 42.36481 69.48134 1350 ft 8 kts 29°
2026-04-12 08:42 42.36499 69.48183 1352 ft 6 kts 105°
2026-04-12 08:42 42.36480 69.48262 1350 ft 10 kts 128°
2026-04-12 08:43 42.36460 69.48373 1351 ft 17 kts 107°
2026-04-12 08:43 42.36428 69.48521 1349 ft 12 kts 104°
2026-04-12 08:43 42.36408 69.48613 1352 ft 13 kts 107°
2026-04-12 08:43 42.36404 69.48725 1349 ft 10 kts 39°
2026-04-12 08:44 42.36485 69.48765 1352 ft 10 kts 28°
2026-04-12 08:44 42.36490 69.48840 1352 ft 11 kts 116°
2026-04-12 08:44 42.36510 69.48913 1350 ft 10 kts 19°
2026-04-12 08:44 42.36525 69.48922 1350 ft 0 kts 24°